Погода в Петрозаводске

Хотите узнать прогноз погоды в Петрозаводске? Тогда Вам сюда: Погода в Петрозаводске

Поиск расширенной информации на нашем сайте:

Полезная информация:

Новости сайта



02.01.2020
Опубликован Долгосрочный прогноз погоды по городам России и ближнего зарубежья на январь 2020 года.
Карты: Прогноз на январь и февраль 2020 года, Сравнение прогнозируемой аномалии приземной температуры воздуха на январь 2020 года по разным моделям.




Погода в Петрозаводске - сегодня

Время (UTC), дата Ветер
(°,м/с) 
Видим.   Явления Облачность Т
(°С)
Тd
(°С)
f(%) Тe
(°С)
Pmin
(гПа)
dP
(гПа)
Po
(мм)
O2
(г/м3)
Тmin Tmax R s Состояние
почвы
15 28.11.20 090 (В) 10 км  слаб. снег  10/8 210 м средняя 
[Sc|As op]
-2.2 -2.8 96 -5  1032.9  1.1  764  311      0.0     
18 28.11.20 100 (В) 20000 м  {снег}  10/8 180 м средняя 
[Sc|As op]
-2.2 -2.8 96 -5  1034.1  1.1  765  311    -0.6  0.0     
21 28.11.20 100 (В) 20000 м  в посл. час снег  10/6 150 м средняя 
[Frnb|Ac As]
-2.6 -3 97 -5  1034.8  0.7  765  312           
00 29.11.20 110 (В) 20000 м  {снег}  10/10 180 м 
[Sc]
-2.4 -3 96 -5  1035.2  0.4  766  312           
03 29.11.20 140 (ЮВ) 20000 м    10/10 210 м 
[Sc]
-2.7 -3.2 96 -4  1035.1  -0.1  766  312  -2.9    0.0     
06 29.11.20 160 (Ю) 20000 м    10/10 150 м 
[St]
-3.4 -3.7 98 -6  1035  -0.1  766  313  -3.4    0.0  равномерный
сухой снег
100% 
09 29.11.20 170 (Ю) 21000 м    10/10 240 м 
[Sc]
-3.7 -4.6 93 -7  1035.6  0.5  766  313           
12 29.11.20 140 (ЮВ) 20000 м    10/10 630 м 
[Sc]
-2.5 -3.8 91 -4  1034.5  -1  765  312           
15 29.11.20 120 (ЮВ) 20000 м    10/10 270 м 
[Sc]
-2.6 -3.6 93 -4  1034.1  -0.4  765  312           
18 29.11.20 120 (ЮВ) 20000 м    10/10 240 м 
[Sc]
-2.2 -3 94 -4  1032.8  -1.2  764  311    -2.1       
21 29.11.20 130 (ЮВ) 20000 м    10/10 150 м 
[St]
-2.1 -2.4 98 -4  1031.8  -1  763  310           
00 30.11.20 120 (ЮВ) 10 км    10/10 150 м 
[St]
-2.7 -3 98 -5  1030.5  -1.3  762  311           
03 30.11.20 130 (ЮВ) 10 км  снежные зёрна  10/10 150 м 
[St]
-1.8 -2.2 97 -3  1028.7  -1.8  761  309  -3.5    0.0     
06 30.11.20 140 (ЮВ) 10 км  слаб. снег  10/6 1000 м средняя 
[Frnb|Ac As]
-0.9 -1.4 96 -3  1027.2  -1.4  760  307  -3.5    0.0    равномерный
мокрый или
старый снег
100% 
09 30.11.20 170 (Ю) 19000 м  {снег}  10/8 1200 м средняя 
[Sc|Ac As]
+0.1 -0.6 95 -3  1026  -1.1  759  306           
12 30.11.20 160 (Ю) 14000 м  слаб. снег  10/8 180 м средняя 
[Sc diur, vesp|Ac As]
+0.5 +0.1 97 1024.5  -1.5  758  305           
15 30.11.20 140 (ЮВ) 10 км  в посл. час снег  9/8 330 м средняя 
[Sc|As op]
+0.8 +0.1 95 1022.8  -1.6  757  304      0.1     
18 30.11.20 140 (ЮВ) 4000 м  снег  10/8 210 м средняя 
[Sc|As op]
+0.5 +0.2 98 1020.8  -2  755  304    +0.9  0.3     
21 30.11.20 160 (Ю) 10 км  слаб. снег  10/8 360 м средняя 
[Sc|As op]
+0.4 -0.1 96 -1  1019.7  -1.1  754  304           
00 01.12.20 200 (Ю) 10 км  в посл. час снег  8/6 300 м средняя 
[Sc|Ac trans]
-0.5 -1.5 93 -2  1020.4  0.6  755  305           
03 01.12.20 190 (Ю) 20000 м  слаб. снег  9/8 600 м средняя 
[Ac As]
-1 -1.8 94 -3  1020.5  0.1  755  306  -1.3    0.8     
06 01.12.20 180 (Ю) 20000 м  {снег}  9/8 500 м средняя 
[Sc|Ac trans]
-1.4 -2.5 92 -3  1020.9  0.4  755  306  -1.5    0.5  равномерный
сухой снег
100% 
09 01.12.20 200 (Ю) 20000 м  слаб. снег  8/6 600 м средняя 
[Sc|Ac As]
-0.9 -2 92 -3  1021  0.1  755  306           
12 01.12.20 200 (Ю) 19000 м  {снег}  10/8 570 м средняя 
[Sc|Ac und]
-0.2 -1.5 91 -2  1021.6  0.6  756  305           
15 01.12.20 200 (Ю) 4000 м  слаб. снег  10/0 средняя 
[As op]
+0 -1.1 92 -2  1021.8  0.2  756  305      0.0     
Время (UTC), дата Ветер
(°,м/с) 
Видим.   Явления Облачность Т
(°С)
Тd
(°С)
f(%) Тe
(°С)
Pmin
(гПа)
dP
(гПа)
Po
(мм)
O2
(г/м3)
Тmin Tmax R s Состояние
почвы

Для получения пояснительной информации подведите курсор к названию столбца.

ПОГОДА в Петрозаводске - архив

Всё, что Вы хотите узнать о погоде в Петрозаводске - удобно и подробно!

Выберите нужную дату (начиная с 1 января 2019* года) и нажмите кнопку "Найти".
Будут отображены архивные сводки погоды по пункту Петрозаводск, начиная с указанной даты.


Отображать данные в формате CSV (для использования в таблицах Excel)


Внимание! Наш архив погоды предназначен исключительно для личного некоммерческого использования в познавательных целях. Если Вам необходимы официальные справки о состоянии погоды (для производственных, юридических, коммерческих и т.п. целей), обращайтесь в органы Росгидромета.

*Примечание: данная дата относится к архиву по метеостанциям СССР (Россия, СНГ, Балтия).
Архив по метеостанциям Зарубежной Европы и Азии (кроме Китая) хранится 10 дней, по другим регионам земного шара (Китай, Африка, Америка, Австралия, Океания) - 1 день.

Петрозаводск - район местоположения метеостанции


Название, широта, долгота, высота метеостанции:
Петрозаводск 61.8°ш. 34.3°д. 110 м над ур. моря [Российская Федерация]

Дополнительная информация

В oтличие oт бoльшинства пoгoдных сайтoв мы публикуем пoдрoбную метеoинфoрмацию в детальнoм прoфессиoнальнoм фoрмате.

Характеристики температуры и влажнoсти вoздуха измеряются на высoте 2 м в тени вдали oт зданий и деревьев.
Скoрoсть ветра измеряется на высoте 10 м (на урoвне рoста челoвека скoрoсть ветра ниже в 1.5-2 раза). Если метеoстанция нахoдится в гoрoде или в лесу, тo скoрoсть ветра занижена на 2-4 м/с пo сравнению с oткрытым местoм. Скoрoсть ветра над акватoриями крупных рек и oзёр, а также на вершинах хoлмoв на 2-5 м/с выше, чем в oбычных услoвиях.
Атмoсфернoе давление в разных тoчках местнoсти мoжет значительнo oтличаться oт давления на метеoстанции, в зависимoсти oт услoвий рельефа (при пoдъёме на 10 м давление пoнижается примернo на 1 мм рт.ст.).